Tabellarische Ansicht des 16.4.2012


Die einzelnen Werte des Tages

Uhrzeit Temperatur Luftdruck Luftfeuchte Wind Hi-Wind Taupunkt THW Index Wind Chill Heat Index Solar- strahlung Regen

00:00

5.8 C

1013.4 hpa

71 %

12.9 km/h aus 117

22.5 km/h aus NW

0.9 C

2.7 C

3.1 C

5.4 C

0 W/m

0.00 mm

00:05

5.7 C

1013.4 hpa

71 %

16.1 km/h aus 115

30.6 km/h aus NW

0.9 C

2.1 C

2.4 C

5.4 C

0 W/m

0.00 mm

00:10

5.7 C

1013.4 hpa

71 %

20.9 km/h aus 117

38.6 km/h aus WNW

0.9 C

1.4 C

1.7 C

5.4 C

0 W/m

0.00 mm

00:15

5.7 C

1013.7 hpa

71 %

14.5 km/h aus 117

27.4 km/h aus NNW

0.8 C

2.3 C

2.6 C

5.3 C

0 W/m

0.00 mm

00:20

5.6 C

1013.7 hpa

72 %

14.5 km/h aus 117

25.7 km/h aus NW

1.0 C

2.3 C

2.6 C

5.3 C

0 W/m

0.00 mm

00:25

5.6 C

1013.7 hpa

72 %

19.3 km/h aus 117

32.2 km/h aus NW

0.9 C

1.4 C

1.7 C

5.3 C

0 W/m

0.00 mm

00:30

5.6 C

1013.9 hpa

72 %

14.5 km/h aus 117

25.7 km/h aus NNW

0.9 C

2.2 C

2.5 C

5.3 C

0 W/m

0.00 mm

00:35

5.5 C

1013.9 hpa

76 %

14.5 km/h aus 117

27.4 km/h aus NNW

1.6 C

2.2 C

2.4 C

5.3 C

0 W/m

0.00 mm

00:40

5.5 C

1013.9 hpa

73 %

9.7 km/h aus 117

24.1 km/h aus NNW

1.0 C

3.1 C

3.3 C

5.2 C

0 W/m

0.00 mm

00:45

5.4 C

1014.0 hpa

73 %

14.5 km/h aus 117

27.4 km/h aus NW

1.0 C

2.1 C

2.4 C

5.2 C

0 W/m

0.00 mm

00:50

5.4 C

1014.0 hpa

73 %

11.3 km/h aus 116

22.5 km/h aus N

1.0 C

2.7 C

2.9 C

5.2 C

0 W/m

0.00 mm

00:55

5.4 C

1014.0 hpa

74 %

11.3 km/h aus 117

25.7 km/h aus NW

1.1 C

2.6 C

2.8 C

5.2 C

0 W/m

0.00 mm

01:00

5.4 C

1014.0 hpa

74 %

12.9 km/h aus 117

29.0 km/h aus NNW

1.1 C

2.3 C

2.6 C

5.2 C

0 W/m

0.00 mm

01:05

5.3 C

1014.0 hpa

74 %

14.5 km/h aus 116

24.1 km/h aus NNW

1.1 C

2.0 C

2.2 C

5.1 C

0 W/m

0.00 mm

01:10

5.3 C

1014.0 hpa

74 %

19.3 km/h aus 117

32.2 km/h aus NW

1.1 C

1.3 C

1.5 C

5.1 C

0 W/m

0.00 mm

01:15

5.3 C

1014.1 hpa

74 %

16.1 km/h aus 117

29.0 km/h aus NW

1.1 C

1.7 C

1.9 C

5.1 C

0 W/m

0.00 mm

01:20

5.3 C

1014.1 hpa

74 %

14.5 km/h aus 116

25.7 km/h aus NW

1.1 C

2.0 C

2.2 C

5.1 C

0 W/m

0.00 mm

01:25

5.3 C

1014.1 hpa

74 %

17.7 km/h aus 117

29.0 km/h aus WNW

1.1 C

1.5 C

1.7 C

5.1 C

0 W/m

0.00 mm

01:30

5.3 C

1014.2 hpa

75 %

8.0 km/h aus 117

22.5 km/h aus NW

1.3 C

3.3 C

3.5 C

5.1 C

0 W/m

0.00 mm

01:35

5.3 C

1014.2 hpa

75 %

14.5 km/h aus 116

25.7 km/h aus NNW

1.2 C

1.9 C

2.2 C

5.1 C

0 W/m

0.00 mm

01:40

5.2 C

1014.2 hpa

75 %

14.5 km/h aus 116

30.6 km/h aus WNW

1.1 C

1.9 C

2.1 C

5.0 C

0 W/m

0.00 mm

01:45

5.2 C

1014.1 hpa

75 %

16.1 km/h aus 116

32.2 km/h aus NNW

1.1 C

1.6 C

1.8 C

5.0 C

0 W/m

0.00 mm

01:50

5.2 C

1014.1 hpa

75 %

16.1 km/h aus 117

29.0 km/h aus NW

1.1 C

1.6 C

1.8 C

5.0 C

0 W/m

0.00 mm

01:55

5.2 C

1014.1 hpa

75 %

14.5 km/h aus 116

30.6 km/h aus NW

1.1 C

1.9 C

2.1 C

5.0 C

0 W/m

0.00 mm

02:00

5.2 C

1014.2 hpa

75 %

16.1 km/h aus 117

27.4 km/h aus NW

1.1 C

1.6 C

1.8 C

5.0 C

0 W/m

0.00 mm

02:05

5.2 C

1014.2 hpa

75 %

16.1 km/h aus 118

27.4 km/h aus NNW

1.1 C

1.6 C

1.8 C

4.9 C

0 W/m

0.00 mm

02:10

5.2 C

1014.2 hpa

75 %

14.5 km/h aus 116

24.1 km/h aus NNW

1.1 C

1.8 C

2.1 C

4.9 C

0 W/m

0.00 mm

02:15

5.2 C

1014.3 hpa

75 %

12.9 km/h aus 117

25.7 km/h aus NW

1.1 C

2.1 C

2.3 C

4.9 C

0 W/m

0.00 mm

02:20

5.2 C

1014.3 hpa

75 %

12.9 km/h aus 116

25.7 km/h aus NW

1.1 C

2.1 C

2.3 C

4.9 C

0 W/m

0.00 mm

02:25

5.1 C

1014.3 hpa

75 %

12.9 km/h aus 117

27.4 km/h aus NW

1.0 C

2.0 C

2.2 C

4.9 C

0 W/m

0.00 mm

02:30

5.1 C

1014.3 hpa

76 %

16.1 km/h aus 116

29.0 km/h aus NW

1.2 C

1.4 C

1.7 C

4.9 C

0 W/m

0.00 mm

02:35

5.1 C

1014.3 hpa

75 %

14.5 km/h aus 117

29.0 km/h aus WNW

1.0 C

1.7 C

1.9 C

4.8 C

0 W/m

0.00 mm

02:40

5.1 C

1014.3 hpa

75 %

12.9 km/h aus 116

24.1 km/h aus NW

1.0 C

1.9 C

2.2 C

4.8 C

0 W/m

0.00 mm

02:45

5.1 C

1014.3 hpa

75 %

14.5 km/h aus 117

27.4 km/h aus NNW

1.0 C

1.7 C

1.9 C

4.8 C

0 W/m

0.00 mm

02:50

5.1 C

1014.3 hpa

75 %

14.5 km/h aus 117

29.0 km/h aus NNW

1.0 C

1.7 C

1.9 C

4.8 C

0 W/m

0.00 mm

02:55

5.0 C

1014.3 hpa

75 %

16.1 km/h aus 117

30.6 km/h aus NW

0.9 C

1.3 C

1.6 C

4.8 C

0 W/m

0.00 mm

03:00

5.0 C

1014.4 hpa

75 %

17.7 km/h aus 116

27.4 km/h aus NNW

0.9 C

1.1 C

1.3 C

4.8 C

0 W/m

0.00 mm

03:05

4.9 C

1014.4 hpa

75 %

14.5 km/h aus 116

25.7 km/h aus WNW

0.9 C

1.6 C

1.8 C

4.7 C

0 W/m

0.00 mm

03:10

4.9 C

1014.4 hpa

75 %

14.5 km/h aus 117

32.2 km/h aus NW

0.9 C

1.6 C

1.8 C

4.7 C

0 W/m

0.00 mm

03:15

4.9 C

1014.5 hpa

75 %

14.5 km/h aus 117

27.4 km/h aus NW

0.9 C

1.6 C

1.8 C

4.7 C

0 W/m

0.00 mm

03:20

4.9 C

1014.5 hpa

75 %

14.5 km/h aus 116

24.1 km/h aus NNW

0.8 C

1.5 C

1.7 C

4.7 C

0 W/m

0.00 mm

03:25

4.8 C

1014.5 hpa

75 %

12.9 km/h aus 117

25.7 km/h aus WNW

0.8 C

1.7 C

1.9 C

4.6 C

0 W/m

0.00 mm

03:30

4.8 C

1014.5 hpa

75 %

9.7 km/h aus 115

20.9 km/h aus NW

0.8 C

2.3 C

2.6 C

4.6 C

0 W/m

0.00 mm

03:35

4.8 C

1014.5 hpa

75 %

17.7 km/h aus 115

30.6 km/h aus NW

0.7 C

0.8 C

1.1 C

4.6 C

0 W/m

0.00 mm

03:40

4.8 C

1014.5 hpa

75 %

14.5 km/h aus 116

25.7 km/h aus NW

0.7 C

1.3 C

1.6 C

4.6 C

0 W/m

0.00 mm

03:45

4.8 C

1014.5 hpa

75 %

12.9 km/h aus 115

24.1 km/h aus NW

0.7 C

1.6 C

1.8 C

4.6 C

0 W/m

0.00 mm

03:50

4.7 C

1014.5 hpa

75 %

14.5 km/h aus 117

25.7 km/h aus NW

0.7 C

1.2 C

1.5 C

4.4 C

0 W/m

0.00 mm

03:55

4.7 C

1014.5 hpa

74 %

12.9 km/h aus 117

24.1 km/h aus NW

0.4 C

1.4 C

1.7 C

4.4 C

0 W/m

0.00 mm

04:00

4.7 C

1014.6 hpa

74 %

14.5 km/h aus 117

27.4 km/h aus NW

0.4 C

1.2 C

1.4 C

4.4 C

0 W/m

0.00 mm

04:05

4.6 C

1014.6 hpa

74 %

16.1 km/h aus 116

27.4 km/h aus NNW

0.4 C

0.8 C

1.1 C

4.3 C

0 W/m

0.00 mm

04:10

4.6 C

1014.6 hpa

74 %

9.7 km/h aus 117

22.5 km/h aus NW

0.3 C

1.9 C

2.2 C

4.3 C

0 W/m

0.00 mm

04:15

4.6 C

1014.9 hpa

75 %

8.0 km/h aus 117

16.1 km/h aus NNW

0.5 C

2.3 C

2.6 C

4.3 C

0 W/m

0.00 mm

04:20

4.5 C

1014.9 hpa

75 %

8.0 km/h aus 116

17.7 km/h aus NW

0.5 C

2.3 C

2.6 C

4.2 C

0 W/m

0.00 mm

04:25

4.5 C

1014.9 hpa

75 %

11.3 km/h aus 116

24.1 km/h aus WNW

0.5 C

1.5 C

1.8 C

4.2 C

0 W/m

0.00 mm

04:30

4.4 C

1015.0 hpa

75 %

12.9 km/h aus 116

24.1 km/h aus WNW

0.4 C

1.2 C

1.4 C

4.2 C

0 W/m

0.00 mm

04:35

4.4 C

1015.0 hpa

75 %

11.3 km/h aus 117

24.1 km/h aus NNW

0.3 C

1.4 C

1.7 C

4.1 C

0 W/m

0.00 mm

04:40

4.4 C

1015.0 hpa

75 %

9.7 km/h aus 117

19.3 km/h aus NNW

0.3 C

1.7 C

2.0 C

4.1 C

0 W/m

0.00 mm

04:45

4.3 C

1015.0 hpa

76 %

9.7 km/h aus 117

20.9 km/h aus WNW

0.5 C

1.7 C

1.9 C

4.1 C

0 W/m

0.00 mm

04:50

4.3 C

1015.0 hpa

76 %

11.3 km/h aus 117

22.5 km/h aus NNW

0.4 C

1.3 C

1.6 C

4.1 C

0 W/m

0.00 mm

04:55

4.2 C

1015.0 hpa

76 %

9.7 km/h aus 116

20.9 km/h aus NW

0.4 C

1.6 C

1.8 C

4.0 C

0 W/m

0.00 mm

05:00

4.0 C

1015.1 hpa

78 %

4.8 km/h aus 117

9.7 km/h aus WNW

0.5 C

2.9 C

3.1 C

3.8 C

0 W/m

0.00 mm

05:05

3.8 C

1015.1 hpa

79 %

6.4 km/h aus 117

14.5 km/h aus WNW

0.5 C

2.0 C

2.2 C

3.6 C

0 W/m

0.00 mm

05:10

3.5 C

1015.1 hpa

80 %

8.0 km/h aus 117

14.5 km/h aus W

0.4 C

1.2 C

1.4 C

3.3 C

0 W/m

0.00 mm

05:15

3.3 C

1015.2 hpa

81 %

6.4 km/h aus 117

11.3 km/h aus WNW

0.4 C

1.5 C

1.7 C

3.2 C

0 W/m

0.00 mm

05:20

3.2 C

1015.2 hpa

82 %

3.2 km/h aus 118

8.0 km/h aus WNW

0.4 C

2.7 C

2.9 C

3.0 C

0 W/m

0.00 mm

05:25

3.1 C

1015.2 hpa

82 %

6.4 km/h aus 117

11.3 km/h aus NW

0.3 C

1.2 C

1.3 C

2.9 C

0 W/m

0.00 mm

05:30

2.9 C

1015.4 hpa

83 %

4.8 km/h aus 117

11.3 km/h aus WNW

0.3 C

1.7 C

1.8 C

2.8 C

0 W/m

0.00 mm

05:35

2.8 C

1015.4 hpa

83 %

4.8 km/h aus 117

9.7 km/h aus WNW

0.2 C

1.6 C

1.7 C

2.7 C

0 W/m

0.00 mm

05:40

2.7 C

1015.4 hpa

83 %

4.8 km/h aus 117

9.7 km/h aus WNW

0.1 C

1.4 C

1.5 C

2.6 C

0 W/m

0.00 mm

05:45

2.6 C

1015.4 hpa

84 %

3.2 km/h aus 116

8.0 km/h aus W

0.1 C

2.1 C

2.2 C

2.4 C

0 W/m

0.00 mm

05:50

2.4 C

1015.4 hpa

84 %

3.2 km/h aus 116

8.0 km/h aus W

0.0 C

2.0 C

2.1 C

2.3 C

0 W/m

0.00 mm

05:55

2.3 C

1015.4 hpa

84 %

3.2 km/h aus 117

8.0 km/h aus W

-0.1 C

1.9 C

2.0 C

2.2 C

0 W/m

0.00 mm

06:00

2.3 C

1015.5 hpa

84 %

1.6 km/h aus 115

4.8 km/h aus W

-0.1 C

2.2 C

2.3 C

2.2 C

0 W/m

0.00 mm

06:05

2.2 C

1015.5 hpa

85 %

3.2 km/h aus 117

6.4 km/h aus W

-0.1 C

1.7 C

1.8 C

2.1 C

0 W/m

0.00 mm

06:10

2.1 C

1015.5 hpa

85 %

1.6 km/h aus 116

4.8 km/h aus W

-0.2 C

1.9 C

2.1 C

1.9 C

0 W/m

0.00 mm

06:15

1.9 C

1015.5 hpa

85 %

1.6 km/h aus 117

4.8 km/h aus W

-0.4 C

1.8 C

1.9 C

1.8 C

0 W/m

0.00 mm

06:20

1.8 C

1015.5 hpa

85 %

1.6 km/h aus 116

6.4 km/h aus W

-0.4 C

1.7 C

1.8 C

1.7 C

0 W/m

0.00 mm

06:25

1.7 C

1015.5 hpa

86 %

1.6 km/h aus 118

8.0 km/h aus W

-0.4 C

1.6 C

1.7 C

1.6 C

0 W/m

0.00 mm

06:30

1.6 C

1015.5 hpa

86 %

1.6 km/h aus 117

6.4 km/h aus W

-0.5 C

1.5 C

1.6 C

1.5 C

0 W/m

0.00 mm

06:35

1.5 C

1015.5 hpa

86 %

1.6 km/h aus 117

4.8 km/h aus W

-0.6 C

1.4 C

1.5 C

1.4 C

0 W/m

0.00 mm

06:40

1.4 C

1015.5 hpa

87 %

1.6 km/h aus 117

6.4 km/h aus W

-0.5 C

1.3 C

1.4 C

1.3 C

0 W/m

0.00 mm

06:45

1.3 C

1015.6 hpa

87 %

1.6 km/h aus 117

6.4 km/h aus W

-0.6 C

1.2 C

1.3 C

1.2 C

0 W/m

0.00 mm

06:50

1.4 C

1015.6 hpa

87 %

1.6 km/h aus 116

11.3 km/h aus W

-0.5 C

1.3 C

1.4 C

1.3 C

0 W/m

0.00 mm

06:55

1.5 C

1015.6 hpa

87 %

4.8 km/h aus 117

9.7 km/h aus W

-0.4 C

0.1 C

0.2 C

1.4 C

0 W/m

0.00 mm

07:00

1.6 C

1015.7 hpa

87 %

4.8 km/h aus 117

9.7 km/h aus W

-0.4 C

0.2 C

0.3 C

1.4 C

0 W/m

0.00 mm

07:05

1.6 C

1015.7 hpa

87 %

4.8 km/h aus 117

14.5 km/h aus WNW

-0.4 C

0.2 C

0.3 C

1.4 C

0 W/m

0.00 mm

07:10

1.6 C

1015.7 hpa

87 %

4.8 km/h aus 117

9.7 km/h aus W

-0.3 C

0.2 C

0.3 C

1.5 C

0 W/m

0.00 mm

07:15

1.6 C

1016.0 hpa

87 %

3.2 km/h aus 116

8.0 km/h aus NW

-0.3 C

1.1 C

1.2 C

1.5 C

0 W/m

0.00 mm

07:20

1.7 C

1016.0 hpa

87 %

3.2 km/h aus 117

9.7 km/h aus NW

-0.3 C

1.2 C

1.3 C

1.6 C

0 W/m

0.00 mm

07:25

1.8 C

1016.0 hpa

87 %

4.8 km/h aus 116

11.3 km/h aus NW

-0.2 C

0.4 C

0.5 C

1.7 C

0 W/m

0.00 mm

07:30

1.9 C

1016.1 hpa

86 %

3.2 km/h aus 117

9.7 km/h aus WNW

-0.2 C

1.4 C

1.5 C

1.8 C

0 W/m

0.00 mm

07:35

1.9 C

1016.1 hpa

86 %

1.6 km/h aus 117

8.0 km/h aus WNW

-0.2 C

1.8 C

1.9 C

1.8 C

0 W/m

0.00 mm

07:40

2.0 C

1016.1 hpa

86 %

3.2 km/h aus 117

11.3 km/h aus WNW

-0.1 C

1.5 C

1.6 C

1.9 C

0 W/m

0.00 mm

07:45

2.2 C

1016.1 hpa

85 %

4.8 km/h aus 117

9.7 km/h aus WNW

-0.1 C

0.8 C

0.9 C

2.1 C

0 W/m

0.00 mm

07:50

2.3 C

1016.1 hpa

85 %

4.8 km/h aus 117

11.3 km/h aus WNW

0.1 C

1.1 C

1.2 C

2.2 C

0 W/m

0.00 mm

07:55

2.4 C

1016.1 hpa

85 %

4.8 km/h aus 117

12.9 km/h aus WNW

0.2 C

1.2 C

1.3 C

2.3 C

0 W/m

0.00 mm

08:00

2.6 C

1016.3 hpa

84 %

3.2 km/h aus 116

8.0 km/h aus WNW

0.2 C

2.2 C

2.3 C

2.5 C

0 W/m

0.00 mm

08:05

2.8 C

1016.3 hpa

84 %

4.8 km/h aus 117

9.7 km/h aus NW

0.3 C

1.6 C

1.7 C

2.7 C

0 W/m

0.00 mm

08:10

2.9 C

1016.3 hpa

84 %

4.8 km/h aus 117

8.0 km/h aus NW

0.5 C

1.7 C

1.8 C

2.8 C

0 W/m

0.00 mm

08:15

3.1 C

1016.5 hpa

83 %

3.2 km/h aus 117

8.0 km/h aus NW

0.5 C

2.7 C

2.8 C

3.0 C

0 W/m

0.00 mm

08:20

3.3 C

1016.5 hpa

83 %

3.2 km/h aus 117

8.0 km/h aus NW

0.7 C

3.0 C

3.1 C

3.2 C

0 W/m

0.00 mm

08:25

3.4 C

1016.5 hpa

82 %

3.2 km/h aus 117

9.7 km/h aus NW

0.7 C

3.1 C

3.2 C

3.3 C

0 W/m

0.00 mm

08:30

3.6 C

1016.5 hpa

82 %

6.4 km/h aus 118

12.9 km/h aus WNW

0.8 C

1.8 C

2.0 C

3.4 C

0 W/m

0.00 mm

08:35

3.9 C

1016.5 hpa

81 %

8.0 km/h aus 117

16.1 km/h aus NW

0.9 C

1.7 C

1.8 C

3.7 C

0 W/m

0.00 mm

08:40

3.9 C

1016.5 hpa

80 %

6.4 km/h aus 117

17.7 km/h aus WNW

0.8 C

2.2 C

2.4 C

3.8 C

0 W/m

0.00 mm

08:45

3.9 C

1016.5 hpa

80 %

6.4 km/h aus 117

16.1 km/h aus NW

0.8 C

2.2 C

2.4 C

3.8 C

0 W/m

0.00 mm

08:50

4.0 C

1016.5 hpa

80 %

8.0 km/h aus 117

14.5 km/h aus NW

0.9 C

1.8 C

1.9 C

3.8 C

0 W/m

0.00 mm

08:55

3.9 C

1016.5 hpa

80 %

6.4 km/h aus 117

14.5 km/h aus NW

0.8 C

2.2 C

2.4 C

3.8 C

0 W/m

0.00 mm

09:00

4.0 C

1016.6 hpa

80 %

6.4 km/h aus 115

12.9 km/h aus WNW

0.9 C

2.3 C

2.4 C

3.8 C

0 W/m

0.00 mm

09:05

4.2 C

1016.6 hpa

80 %

6.4 km/h aus 115

16.1 km/h aus NW

1.1 C

2.6 C

2.7 C

4.1 C

0 W/m

0.00 mm

09:10

4.2 C

1016.6 hpa

79 %

9.7 km/h aus 117

17.7 km/h aus WNW

0.9 C

1.7 C

1.8 C

4.1 C

0 W/m

0.00 mm

09:15

4.4 C

1016.6 hpa

79 %

9.7 km/h aus 116

19.3 km/h aus NW

1.1 C

1.9 C

2.1 C

4.3 C

0 W/m

0.00 mm

09:20

4.9 C

1016.6 hpa

79 %

4.8 km/h aus 117

14.5 km/h aus NW

1.6 C

3.9 C

4.1 C

4.8 C

0 W/m

0.00 mm

09:25

5.1 C

1016.6 hpa

77 %

8.0 km/h aus 116

16.1 km/h aus NW

1.4 C

2.9 C

3.2 C

4.8 C

0 W/m

0.00 mm

09:30

5.4 C

1016.6 hpa

77 %

8.0 km/h aus 116

17.7 km/h aus NW

1.7 C

3.4 C

3.7 C

5.2 C

0 W/m

0.00 mm

09:35

5.8 C

1016.6 hpa

75 %

9.7 km/h aus 118

16.1 km/h aus NW

1.7 C

3.4 C

3.7 C

5.6 C

0 W/m

0.00 mm

09:40

5.8 C

1016.6 hpa

74 %

6.4 km/h aus 117

16.1 km/h aus NW

1.5 C

4.3 C

4.5 C

5.6 C

0 W/m

0.00 mm

09:45

5.8 C

1016.5 hpa

73 %

9.7 km/h aus 117

17.7 km/h aus NW

1.3 C

3.4 C

3.7 C

5.5 C

0 W/m

0.00 mm

09:50

6.3 C

1016.5 hpa

72 %

11.3 km/h aus 116

20.9 km/h aus NNW

1.6 C

3.7 C

4.0 C

6.0 C

0 W/m

0.00 mm

09:55

6.8 C

1016.5 hpa

72 %

9.7 km/h aus 116

17.7 km/h aus NW

2.1 C

4.7 C

4.9 C

6.6 C

0 W/m

0.00 mm

10:00

7.2 C

1016.6 hpa

68 %

11.3 km/h aus 117

17.7 km/h aus NNW

1.7 C

4.7 C

5.1 C

6.8 C

0 W/m

0.00 mm

10:05

6.8 C

1016.6 hpa

69 %

11.3 km/h aus 117

24.1 km/h aus NW

1.5 C

4.4 C

4.7 C

6.6 C

0 W/m

0.00 mm

10:10

7.3 C

1016.6 hpa

67 %

12.9 km/h aus 116

24.1 km/h aus N

1.6 C

4.5 C

4.8 C

6.9 C

0 W/m

0.00 mm

10:15

6.9 C

1016.6 hpa

66 %

14.5 km/h aus 116

24.1 km/h aus NW

1.0 C

3.7 C

4.1 C

6.5 C

0 W/m

0.00 mm

10:20

7.2 C

1016.6 hpa

68 %

9.7 km/h aus 116

22.5 km/h aus NNE

1.7 C

5.1 C

5.4 C

6.9 C

0 W/m

0.00 mm

10:25

7.2 C

1016.6 hpa

66 %

14.5 km/h aus 117

27.4 km/h aus N

1.3 C

4.1 C

4.4 C

6.8 C

0 W/m

0.00 mm

10:30

7.4 C

1016.6 hpa

66 %

11.3 km/h aus 117

20.9 km/h aus NW

1.5 C

5.0 C

5.4 C

7.1 C

0 W/m

0.00 mm

10:35

7.9 C

1016.6 hpa

67 %

8.0 km/h aus 116

19.3 km/h aus NW

2.1 C

6.2 C

6.5 C

7.6 C

0 W/m

0.00 mm

10:40

7.6 C

1016.6 hpa

65 %

11.3 km/h aus 118

27.4 km/h aus WNW

1.4 C

5.1 C

5.5 C

7.2 C

0 W/m

0.00 mm

10:45

6.9 C

1016.6 hpa

66 %

11.3 km/h aus 117

20.9 km/h aus NW

1.0 C

4.3 C

4.7 C

6.5 C

0 W/m

0.00 mm

10:50

6.4 C

1016.6 hpa

67 %

12.9 km/h aus 117

22.5 km/h aus WNW

0.8 C

3.5 C

3.8 C

6.1 C

0 W/m

0.00 mm

10:55

6.3 C

1016.6 hpa

67 %

9.7 km/h aus 117

17.7 km/h aus N

0.6 C

4.0 C

4.3 C

6.0 C

0 W/m

0.00 mm

11:00

7.3 C

1016.6 hpa

66 %

11.3 km/h aus 117

25.7 km/h aus NW

1.4 C

4.8 C

5.2 C

6.9 C

0 W/m

0.00 mm

11:05

7.9 C

1016.6 hpa

63 %

14.5 km/h aus 116

24.1 km/h aus NNW

1.3 C

4.8 C

5.2 C

7.5 C

0 W/m

0.00 mm

11:10

8.1 C

1016.6 hpa

63 %

8.0 km/h aus 117

22.5 km/h aus N

1.4 C

6.3 C

6.7 C

7.7 C

0 W/m

0.00 mm

11:15

8.3 C

1016.5 hpa

63 %

4.8 km/h aus 116

16.1 km/h aus NNW

1.7 C

7.6 C

7.9 C

7.9 C

0 W/m

0.00 mm

11:20

8.6 C

1016.5 hpa

59 %

8.0 km/h aus 117

25.7 km/h aus NW

1.0 C

6.9 C

7.3 C

8.1 C

0 W/m

0.00 mm

11:25

8.3 C

1016.5 hpa

59 %

11.3 km/h aus 117

20.9 km/h aus WNW

0.7 C

5.9 C

6.4 C

7.8 C

0 W/m

0.00 mm

11:30

7.8 C

1016.6 hpa

63 %

14.5 km/h aus 117

32.2 km/h aus WNW

1.2 C

4.7 C

5.1 C

7.4 C

0 W/m

0.00 mm

11:35

6.8 C

1016.6 hpa

67 %

19.3 km/h aus 117

27.4 km/h aus NW

1.1 C

2.8 C

3.1 C

6.4 C

0 W/m

0.00 mm

11:40

5.9 C

1016.6 hpa

72 %

9.7 km/h aus 118

19.3 km/h aus WNW

1.3 C

3.6 C

3.8 C

5.7 C

0 W/m

0.00 mm

11:45

5.7 C

1016.6 hpa

75 %

8.0 km/h aus 116

16.1 km/h aus WNW

1.6 C

3.7 C

3.9 C

5.4 C

0 W/m

0.25 mm

11:50

5.9 C

1016.6 hpa

76 %

6.4 km/h aus 116

17.7 km/h aus WNW

2.0 C

4.4 C

4.6 C

5.7 C

0 W/m

0.00 mm

11:55

6.2 C

1016.6 hpa

74 %

9.7 km/h aus 117

19.3 km/h aus N

1.9 C

3.9 C

4.1 C

5.9 C

0 W/m

0.00 mm

12:00

6.2 C

1016.6 hpa

73 %

6.4 km/h aus 116

14.5 km/h aus NNW

1.7 C

4.7 C

4.9 C

5.9 C

0 W/m

0.00 mm

12:05

6.1 C

1016.6 hpa

73 %

3.2 km/h aus 116

9.7 km/h aus N

1.6 C

5.8 C

6.1 C

5.8 C

0 W/m

0.00 mm

12:10

6.4 C

1016.6 hpa

73 %

3.2 km/h aus 117

9.7 km/h aus N

1.9 C

6.1 C

6.4 C

6.1 C

0 W/m

0.00 mm

12:15

6.9 C

1016.4 hpa

72 %

3.2 km/h aus 117

8.0 km/h aus N

2.2 C

6.7 C

6.9 C

6.7 C

0 W/m

0.00 mm

12:20

7.4 C

1016.4 hpa

68 %

0.0 km/h aus 115

3.2 km/h aus N

1.9 C

7.1 C

7.4 C

7.1 C

0 W/m

0.00 mm

12:25

7.6 C

1016.4 hpa

68 %

1.6 km/h aus 117

8.0 km/h aus N

2.0 C

7.2 C

7.6 C

7.2 C

0 W/m

0.00 mm

12:30

7.5 C

1016.2 hpa

66 %

4.8 km/h aus 117

14.5 km/h aus NNW

1.6 C

6.6 C

7.0 C

7.1 C

0 W/m

0.00 mm

12:35

7.5 C

1016.2 hpa

63 %

4.8 km/h aus 116

14.5 km/h aus WNW

0.9 C

6.6 C

7.0 C

7.1 C

0 W/m

0.00 mm

12:40

8.4 C

1016.2 hpa

62 %

6.4 km/h aus 117

16.1 km/h aus NW

1.6 C

7.1 C

7.6 C

8.0 C

0 W/m

0.00 mm

12:45

8.9 C

1016.0 hpa

52 %

4.8 km/h aus 118

12.9 km/h aus W

-0.4 C

8.0 C

8.6 C

8.3 C

0 W/m

0.00 mm

12:50

9.5 C

1016.0 hpa

55 %

9.7 km/h aus 116

19.3 km/h aus WNW

0.9 C

7.6 C

8.1 C

8.9 C

0 W/m

0.00 mm

12:55

9.2 C

1016.0 hpa

54 %

14.5 km/h aus 116

30.6 km/h aus NW

0.3 C

6.2 C

6.7 C

8.6 C

0 W/m

0.00 mm

13:00

8.3 C

1016.1 hpa

56 %

12.9 km/h aus 116

27.4 km/h aus NW

0.0 C

5.4 C

6.0 C

7.7 C

0 W/m

0.00 mm

13:05

7.8 C

1016.1 hpa

57 %

12.9 km/h aus 117

25.7 km/h aus NW

-0.2 C

4.9 C

5.4 C

7.3 C

0 W/m

0.00 mm

13:10

7.8 C

1016.1 hpa

58 %

9.7 km/h aus 117

17.7 km/h aus WNW

0.1 C

5.6 C

6.1 C

7.3 C

0 W/m

0.00 mm

13:15

8.1 C

1016.1 hpa

60 %

14.5 km/h aus 116

30.6 km/h aus NW

0.8 C

5.0 C

5.4 C

7.6 C

0 W/m

0.00 mm

13:20

7.5 C

1016.1 hpa

60 %

19.3 km/h aus 117

29.0 km/h aus NW

0.2 C

3.6 C

4.0 C

7.1 C

0 W/m

0.00 mm

13:25

7.3 C

1016.1 hpa

61 %

12.9 km/h aus 116

24.1 km/h aus NNW

0.2 C

4.4 C

4.8 C

6.8 C

0 W/m

0.00 mm

13:30

7.3 C

1016.1 hpa

59 %

14.5 km/h aus 117

25.7 km/h aus WNW

-0.2 C

4.1 C

4.5 C

6.8 C

0 W/m

0.00 mm

13:35

7.6 C

1016.1 hpa

60 %

9.7 km/h aus 117

24.1 km/h aus NW

0.3 C

5.3 C

5.8 C

7.1 C

0 W/m

0.00 mm

13:40

7.8 C

1016.1 hpa

60 %

8.0 km/h aus 117

19.3 km/h aus NW

0.5 C

6.0 C

6.4 C

7.4 C

0 W/m

0.00 mm

13:45

8.5 C

1016.1 hpa

61 %

3.2 km/h aus 117

11.3 km/h aus NNW

1.4 C

8.1 C

8.5 C

8.1 C

0 W/m

0.00 mm

13:50

8.7 C

1016.1 hpa

61 %

1.6 km/h aus 118

6.4 km/h aus NNW

1.6 C

8.3 C

8.7 C

8.3 C

0 W/m

0.00 mm

13:55

9.5 C

1016.1 hpa

61 %

4.8 km/h aus 117

12.9 km/h aus N

2.3 C

8.8 C

9.2 C

9.1 C

0 W/m

0.00 mm

14:00

9.4 C

1016.1 hpa

60 %

8.0 km/h aus 117

17.7 km/h aus ENE

2.1 C

7.9 C

8.3 C

9.0 C

0 W/m

0.00 mm

14:05

8.4 C

1016.1 hpa

62 %

6.4 km/h aus 117

14.5 km/h aus NNW

1.6 C

7.1 C

7.6 C

8.0 C

0 W/m

0.00 mm

14:10

8.1 C

1016.1 hpa

64 %

4.8 km/h aus 116

11.3 km/h aus NE

1.7 C

7.3 C

7.7 C

7.7 C

0 W/m

0.00 mm

14:15

8.1 C

1016.2 hpa

62 %

17.7 km/h aus 117

32.2 km/h aus NW

1.2 C

4.4 C

4.9 C

7.6 C

0 W/m

0.00 mm

14:20

8.4 C

1016.2 hpa

61 %

14.5 km/h aus 117

27.4 km/h aus NW

1.3 C

5.4 C

5.8 C

8.0 C

0 W/m

0.00 mm

14:25

7.6 C

1016.2 hpa

63 %

14.5 km/h aus 117

24.1 km/h aus W

1.0 C

4.5 C

4.9 C

7.2 C

0 W/m

0.00 mm

14:30

7.2 C

1016.1 hpa

63 %

11.3 km/h aus 117

24.1 km/h aus WNW

0.6 C

4.7 C

5.1 C

6.8 C

0 W/m

0.00 mm

14:35

7.5 C

1016.1 hpa

64 %

11.3 km/h aus 117

20.9 km/h aus WNW

1.1 C

5.1 C

5.4 C

7.1 C

0 W/m

0.00 mm

14:40

8.1 C

1016.1 hpa

61 %

9.7 km/h aus 117

17.7 km/h aus WNW

1.0 C

6.0 C

6.4 C

7.7 C

0 W/m

0.00 mm

14:45

8.3 C

1016.1 hpa

60 %

11.3 km/h aus 116

22.5 km/h aus WSW

1.0 C

5.9 C

6.4 C

7.8 C

0 W/m

0.00 mm

14:50

8.7 C

1016.1 hpa

58 %

9.7 km/h aus 118

17.7 km/h aus NW

0.9 C

6.6 C

7.1 C

8.2 C

0 W/m

0.00 mm

14:55

9.3 C

1016.1 hpa

54 %

9.7 km/h aus 116

27.4 km/h aus WNW

0.4 C

7.3 C

7.8 C

8.7 C

0 W/m

0.00 mm

15:00

9.7 C

1016.1 hpa

44 %

17.7 km/h aus 114

29.0 km/h aus NW

-2.0 C

6.0 C

6.7 C

8.9 C

0 W/m

0.00 mm

15:05

9.3 C

1016.1 hpa

45 %

17.7 km/h aus 116

25.7 km/h aus NW

-2.1 C

5.6 C

6.3 C

8.6 C

0 W/m

0.00 mm

15:10

8.7 C

1016.1 hpa

46 %

12.9 km/h aus 116

22.5 km/h aus W

-2.3 C

5.8 C

6.5 C

8.0 C

0 W/m

0.00 mm

15:15

8.4 C

1015.8 hpa

48 %

9.7 km/h aus 117

19.3 km/h aus NW

-2.0 C

6.1 C

6.8 C

7.7 C

0 W/m

0.00 mm

15:20

8.3 C

1015.8 hpa

51 %

6.4 km/h aus 116

19.3 km/h aus WNW

-1.3 C

6.7 C

7.4 C

7.6 C

0 W/m

0.00 mm

15:25

8.3 C

1015.8 hpa

55 %

11.3 km/h aus 117

29.0 km/h aus NW

-0.2 C

5.8 C

6.4 C

7.7 C

0 W/m

0.00 mm

15:30

8.1 C

1016.1 hpa

57 %

17.7 km/h aus 115

30.6 km/h aus WNW

0.0 C

4.4 C

4.9 C

7.6 C

0 W/m

0.00 mm

15:35

7.8 C

1016.1 hpa

58 %

16.1 km/h aus 117

27.4 km/h aus WNW

0.0 C

4.3 C

4.8 C

7.3 C

0 W/m

0.00 mm

15:40

7.7 C

1016.1 hpa

55 %

14.5 km/h aus 117

27.4 km/h aus WNW

-0.8 C

4.5 C

5.1 C

7.2 C

0 W/m

0.00 mm

15:45

8.6 C

1016.1 hpa

54 %

20.9 km/h aus 115

37.0 km/h aus WNW

-0.2 C

4.4 C

4.9 C

8.0 C

0 W/m

0.00 mm

15:50

9.0 C

1016.1 hpa

51 %

17.7 km/h aus 115

32.2 km/h aus WNW

-0.6 C

5.3 C

5.9 C

8.3 C

0 W/m

0.00 mm

15:55

8.7 C

1016.1 hpa

52 %

16.1 km/h aus 116

24.1 km/h aus WNW

-0.6 C

5.3 C

5.9 C

8.1 C

0 W/m

0.00 mm

16:00

8.1 C

1016.0 hpa

53 %

14.5 km/h aus 113

27.4 km/h aus WNW

-0.9 C

4.9 C

5.5 C

7.5 C

0 W/m

0.00 mm

16:05

7.9 C

1016.0 hpa

57 %

11.3 km/h aus 117

20.9 km/h aus NW

-0.1 C

5.5 C

6.0 C

7.4 C

0 W/m

0.00 mm

16:10

7.9 C

1016.0 hpa

57 %

6.4 km/h aus 117

16.1 km/h aus WNW

-0.1 C

6.5 C

7.0 C

7.4 C

0 W/m

0.00 mm

16:15

8.4 C

1015.7 hpa

57 %

8.0 km/h aus 117

17.7 km/h aus NW

0.4 C

6.6 C

7.1 C

7.9 C

0 W/m

0.00 mm

16:20

9.3 C

1015.7 hpa

54 %

9.7 km/h aus 117

17.7 km/h aus NW

0.5 C

7.4 C

7.9 C

8.8 C

0 W/m

0.00 mm

16:25

9.9 C

1015.7 hpa

47 %

12.9 km/h aus 117

27.4 km/h aus W

-0.9 C

7.2 C

7.9 C

9.2 C

0 W/m

0.00 mm

16:30

9.1 C

1015.6 hpa

48 %

16.1 km/h aus 117

25.7 km/h aus WNW

-1.4 C

5.6 C

6.3 C

8.4 C

0 W/m

0.00 mm

16:35

8.8 C

1015.6 hpa

50 %

14.5 km/h aus 117

24.1 km/h aus NW

-1.1 C

5.6 C

6.3 C

8.1 C

0 W/m

0.00 mm

16:40

9.2 C

1015.6 hpa

51 %

14.5 km/h aus 117

25.7 km/h aus WNW

-0.5 C

6.1 C

6.7 C

8.5 C

0 W/m

0.00 mm

16:45

9.1 C

1015.6 hpa

52 %

12.9 km/h aus 117

25.7 km/h aus WNW

-0.3 C

6.3 C

6.9 C

8.4 C

0 W/m

0.00 mm

16:50

8.8 C

1015.6 hpa

52 %

17.7 km/h aus 115

27.4 km/h aus WNW

-0.5 C

5.1 C

5.7 C

8.2 C

0 W/m

0.00 mm

16:55

8.9 C

1015.6 hpa

53 %

9.7 km/h aus 118

24.1 km/h aus WNW

-0.2 C

6.8 C

7.4 C

8.3 C

0 W/m

0.00 mm

17:00

9.1 C

1015.6 hpa

53 %

9.7 km/h aus 117

19.3 km/h aus WNW

0.0 C

7.1 C

7.7 C

8.5 C

0 W/m

0.00 mm

17:05

8.8 C

1015.6 hpa

56 %

11.3 km/h aus 117

20.9 km/h aus NNW

0.5 C

6.4 C

7.0 C

8.2 C

0 W/m

0.00 mm

17:10

8.3 C

1015.6 hpa

57 %

9.7 km/h aus 117

25.7 km/h aus NW

0.2 C

6.2 C

6.7 C

7.8 C

0 W/m

0.00 mm

17:15

8.9 C

1015.6 hpa

57 %

11.3 km/h aus 117

20.9 km/h aus NNW

0.9 C

6.7 C

7.2 C

8.4 C

0 W/m

0.00 mm

17:20

8.6 C

1015.6 hpa

54 %

8.0 km/h aus 117

20.9 km/h aus WNW

-0.2 C

6.8 C

7.4 C

8.1 C

0 W/m

0.00 mm

17:25

8.2 C

1015.6 hpa

56 %

8.0 km/h aus 117

16.1 km/h aus WNW

-0.1 C

6.3 C

6.8 C

7.6 C

0 W/m

0.00 mm

17:30

8.0 C

1015.8 hpa

55 %

12.9 km/h aus 116

25.7 km/h aus WNW

-0.5 C

5.1 C

5.7 C

7.4 C

0 W/m

0.00 mm

17:35

7.8 C

1015.8 hpa

60 %

14.5 km/h aus 117

24.1 km/h aus W

0.5 C

4.7 C

5.1 C

7.3 C

0 W/m

0.00 mm

17:40

7.3 C

1015.8 hpa

64 %

8.0 km/h aus 117

17.7 km/h aus SW

0.9 C

5.4 C

5.8 C

6.9 C

0 W/m

0.00 mm

17:45

7.2 C

1015.9 hpa

65 %

4.8 km/h aus 117

11.3 km/h aus WSW

1.1 C

6.3 C

6.7 C

6.8 C

0 W/m

0.00 mm

17:50

7.2 C

1015.9 hpa

63 %

6.4 km/h aus 117

11.3 km/h aus WSW

0.6 C

5.8 C

6.2 C

6.8 C

0 W/m

0.00 mm

17:55

7.3 C

1015.9 hpa

62 %

6.4 km/h aus 117

9.7 km/h aus WSW

0.5 C

5.8 C

6.2 C

6.8 C

0 W/m

0.00 mm

18:00

7.4 C

1016.1 hpa

61 %

4.8 km/h aus 117

9.7 km/h aus WSW

0.4 C

6.5 C

6.9 C

7.0 C

0 W/m

0.00 mm

18:05

7.7 C

1016.1 hpa

61 %

3.2 km/h aus 117

8.0 km/h aus WSW

0.6 C

7.2 C

7.7 C

7.2 C

0 W/m

0.00 mm

18:10

7.7 C

1016.1 hpa

60 %

4.8 km/h aus 117

16.1 km/h aus N

0.4 C

6.8 C

7.3 C

7.3 C

0 W/m

0.00 mm

18:15

7.6 C

1016.0 hpa

60 %

3.2 km/h aus 117

9.7 km/h aus NNW

0.3 C

7.2 C

7.6 C

7.2 C

0 W/m

0.00 mm

18:20

7.6 C

1016.0 hpa

60 %

3.2 km/h aus 117

8.0 km/h aus NNW

0.3 C

7.2 C

7.6 C

7.2 C

0 W/m

0.00 mm

18:25

7.6 C

1016.0 hpa

60 %

3.2 km/h aus 117

6.4 km/h aus NNW

0.3 C

7.1 C

7.6 C

7.1 C

0 W/m

0.00 mm

18:30

7.6 C

1015.9 hpa

60 %

1.6 km/h aus 117

6.4 km/h aus NNW

0.3 C

7.1 C

7.6 C

7.1 C

0 W/m

0.00 mm

18:35

7.5 C

1015.9 hpa

61 %

3.2 km/h aus 117

6.4 km/h aus NNW

0.5 C

7.1 C

7.5 C

7.1 C

0 W/m

0.00 mm

18:40

7.4 C

1015.9 hpa

60 %

3.2 km/h aus 117

8.0 km/h aus NNW

0.2 C

7.0 C

7.4 C

7.0 C

0 W/m

0.00 mm

18:45

7.4 C

1015.9 hpa

59 %

8.0 km/h aus 117

19.3 km/h aus WNW

-0.1 C

5.5 C

5.9 C

6.9 C

0 W/m

0.00 mm

18:50

7.5 C

1015.9 hpa

57 %

12.9 km/h aus 116

24.1 km/h aus WNW

-0.5 C

4.6 C

5.1 C

7.0 C

0 W/m

0.00 mm

18:55

7.4 C

1015.9 hpa

55 %

12.9 km/h aus 116

25.7 km/h aus WNW

-1.0 C

4.5 C

5.1 C

6.9 C

0 W/m

0.00 mm

19:00

7.4 C

1016.0 hpa

56 %

11.3 km/h aus 117

27.4 km/h aus NW

-0.8 C

4.8 C

5.4 C

6.9 C

0 W/m

0.00 mm

19:05

7.3 C

1016.0 hpa

56 %

8.0 km/h aus 117

22.5 km/h aus NW

-0.9 C

5.3 C

5.8 C

6.8 C

0 W/m

0.00 mm

19:10

7.3 C

1016.0 hpa

57 %

8.0 km/h aus 117

17.7 km/h aus NW

-0.6 C

5.3 C

5.8 C

6.8 C

0 W/m

0.00 mm

19:15

7.3 C

1016.0 hpa

57 %

6.4 km/h aus 117

16.1 km/h aus WNW

-0.6 C

5.8 C

6.3 C

6.8 C

0 W/m

0.00 mm

19:20

7.3 C

1016.0 hpa

57 %

8.0 km/h aus 117

16.1 km/h aus WNW

-0.6 C

5.3 C

5.8 C

6.8 C

0 W/m

0.00 mm

19:25

7.3 C

1016.0 hpa

57 %

6.4 km/h aus 117

16.1 km/h aus WNW

-0.6 C

5.8 C

6.3 C

6.8 C

0 W/m

0.00 mm

19:30

7.3 C

1016.0 hpa

57 %

4.8 km/h aus 117

9.7 km/h aus NW

-0.6 C

6.3 C

6.8 C

6.8 C

0 W/m

0.00 mm

19:35

7.3 C

1016.0 hpa

58 %

4.8 km/h aus 117

9.7 km/h aus NW

-0.4 C

6.3 C

6.8 C

6.8 C

0 W/m

0.00 mm

19:40

7.3 C

1016.0 hpa

58 %

3.2 km/h aus 117

11.3 km/h aus NW

-0.4 C

6.8 C

7.3 C

6.8 C

0 W/m

0.00 mm

19:45

7.3 C

1016.0 hpa

58 %

3.2 km/h aus 115

9.7 km/h aus NW

-0.4 C

6.8 C

7.3 C

6.8 C

0 W/m

0.00 mm

19:50

7.3 C

1016.0 hpa

59 %

1.6 km/h aus 116

4.8 km/h aus NW

-0.2 C

6.8 C

7.3 C

6.8 C

0 W/m

0.00 mm

19:55

7.2 C

1016.0 hpa

58 %

4.8 km/h aus 117

16.1 km/h aus NW

-0.5 C

6.2 C

6.7 C

6.7 C

0 W/m

0.00 mm

20:00

7.2 C

1015.9 hpa

56 %

9.7 km/h aus 114

17.7 km/h aus WNW

-1.0 C

4.8 C

5.3 C

6.6 C

0 W/m

0.00 mm

20:05

7.1 C

1015.9 hpa

56 %

8.0 km/h aus 115

16.1 km/h aus WNW

-1.1 C

5.1 C

5.6 C

6.6 C

0 W/m

0.00 mm

20:10

6.9 C

1015.9 hpa

56 %

9.7 km/h aus 118

20.9 km/h aus WNW

-1.2 C

4.5 C

5.1 C

6.4 C

0 W/m

0.00 mm

20:15

6.8 C

1016.1 hpa

56 %

8.0 km/h aus 117

17.7 km/h aus WNW

-1.3 C

4.7 C

5.3 C

6.3 C

0 W/m

0.00 mm

20:20

6.7 C

1016.1 hpa

57 %

8.0 km/h aus 117

17.7 km/h aus WNW

-1.2 C

4.7 C

5.2 C

6.2 C

0 W/m

0.00 mm

20:25

6.6 C

1016.1 hpa

57 %

9.7 km/h aus 117

17.7 km/h aus WNW

-1.3 C

4.2 C

4.7 C

6.1 C

0 W/m

0.00 mm

20:30

6.4 C

1016.1 hpa

59 %

6.4 km/h aus 116

17.7 km/h aus NW

-1.0 C

4.7 C

5.2 C

5.9 C

0 W/m

0.00 mm

20:35

6.2 C

1016.1 hpa

59 %

4.8 km/h aus 117

11.3 km/h aus WNW

-1.2 C

5.1 C

5.6 C

5.8 C

0 W/m

0.00 mm

20:40

6.1 C

1016.1 hpa

61 %

4.8 km/h aus 117

11.3 km/h aus WNW

-0.9 C

4.9 C

5.4 C

5.6 C

0 W/m

0.00 mm

20:45

5.9 C

1016.1 hpa

61 %

4.8 km/h aus 117

8.0 km/h aus WNW

-1.0 C

4.8 C

5.2 C

5.5 C

0 W/m

0.00 mm

20:50

5.8 C

1016.1 hpa

62 %

3.2 km/h aus 116

8.0 km/h aus WNW

-0.9 C

5.3 C

5.8 C

5.3 C

0 W/m

0.00 mm

20:55

5.6 C

1016.1 hpa

63 %

6.4 km/h aus 117

17.7 km/h aus NW

-0.9 C

3.8 C

4.2 C

5.2 C

0 W/m

0.00 mm

21:00

5.5 C

1016.2 hpa

63 %

4.8 km/h aus 117

9.7 km/h aus WNW

-1.0 C

4.3 C

4.7 C

5.1 C

0 W/m

0.00 mm

21:05

5.4 C

1016.2 hpa

63 %

3.2 km/h aus 116

6.4 km/h aus WNW

-1.0 C

5.1 C

5.4 C

5.1 C

0 W/m

0.00 mm

21:10

5.3 C

1016.2 hpa

64 %

4.8 km/h aus 118

14.5 km/h aus WNW

-1.0 C

4.1 C

4.5 C

4.9 C

0 W/m

0.00 mm

21:15

5.3 C

1016.6 hpa

65 %

6.4 km/h aus 117

11.3 km/h aus WNW

-0.8 C

3.6 C

3.9 C

4.9 C

0 W/m

0.00 mm

21:20

5.2 C

1016.6 hpa

65 %

4.8 km/h aus 117

8.0 km/h aus WNW

-0.9 C

3.9 C

4.3 C

4.8 C

0 W/m

0.00 mm

21:25

5.0 C

1016.6 hpa

66 %

4.8 km/h aus 117

9.7 km/h aus WNW

-0.8 C

3.8 C

4.2 C

4.6 C

0 W/m

0.00 mm

21:30

4.9 C

1016.6 hpa

66 %

3.2 km/h aus 117

9.7 km/h aus NNW

-0.9 C

4.4 C

4.8 C

4.5 C

0 W/m

0.00 mm

21:35

4.7 C

1016.6 hpa

67 %

3.2 km/h aus 117

8.0 km/h aus NW

-0.9 C

4.2 C

4.6 C

4.3 C

0 W/m

0.00 mm

21:40

4.4 C

1016.6 hpa

68 %

1.6 km/h aus 117

4.8 km/h aus NW

-1.0 C

4.1 C

4.4 C

4.1 C

0 W/m

0.00 mm

21:45

4.3 C

1016.6 hpa

69 %

1.6 km/h aus 117

6.4 km/h aus NW

-0.9 C

3.9 C

4.3 C

3.9 C

0 W/m

0.00 mm

21:50

4.0 C

1016.6 hpa

70 %

3.2 km/h aus 117

8.0 km/h aus NW

-1.0 C

3.5 C

3.8 C

3.7 C

0 W/m

0.00 mm

21:55

3.9 C

1016.6 hpa

71 %

1.6 km/h aus 117

6.4 km/h aus NW

-0.9 C

3.6 C

3.9 C

3.6 C

0 W/m

0.00 mm

22:00

4.0 C

1016.6 hpa

71 %

3.2 km/h aus 117

8.0 km/h aus WNW

-0.8 C

3.5 C

3.8 C

3.7 C

0 W/m

0.00 mm

22:05

4.0 C

1016.6 hpa

71 %

3.2 km/h aus 116

8.0 km/h aus WNW

-0.8 C

3.5 C

3.8 C

3.7 C

0 W/m

0.00 mm

22:10

4.0 C

1016.6 hpa

70 %

4.8 km/h aus 115

8.0 km/h aus WNW

-1.0 C

2.7 C

3.1 C

3.7 C

0 W/m

0.00 mm

22:15

3.9 C

1016.7 hpa

70 %

4.8 km/h aus 118

9.7 km/h aus WNW

-1.0 C

2.6 C

2.9 C

3.6 C

0 W/m

0.00 mm

22:20

3.9 C

1016.7 hpa

70 %

6.4 km/h aus 116

9.7 km/h aus WNW

-1.0 C

2.1 C

2.4 C

3.6 C

0 W/m

0.00 mm

22:25

4.0 C

1016.7 hpa

70 %

4.8 km/h aus 117

11.3 km/h aus W

-1.0 C

2.7 C

3.1 C

3.7 C

0 W/m

0.00 mm

22:30

4.0 C

1016.8 hpa

70 %

4.8 km/h aus 116

11.3 km/h aus WNW

-1.0 C

2.7 C

3.1 C

3.7 C

0 W/m

0.00 mm

22:35

3.9 C

1016.8 hpa

70 %

4.8 km/h aus 117

9.7 km/h aus WNW

-1.0 C

2.6 C

2.9 C

3.6 C

0 W/m

0.00 mm

22:40

3.9 C

1016.8 hpa

70 %

4.8 km/h aus 116

11.3 km/h aus WNW

-1.0 C

2.6 C

2.9 C

3.6 C

0 W/m

0.00 mm

22:45

3.9 C

1016.8 hpa

71 %

4.8 km/h aus 116

9.7 km/h aus W

-0.9 C

2.6 C

2.9 C

3.6 C

0 W/m

0.00 mm

22:50

3.8 C

1016.8 hpa

71 %

3.2 km/h aus 117

9.7 km/h aus W

-1.0 C

3.2 C

3.6 C

3.4 C

0 W/m

0.00 mm

22:55

3.7 C

1016.8 hpa

71 %

4.8 km/h aus 116

9.7 km/h aus W

-1.1 C

2.4 C

2.7 C

3.4 C

0 W/m

0.00 mm

23:00

3.6 C

1016.7 hpa

72 %

3.2 km/h aus 116

6.4 km/h aus W

-1.0 C

3.1 C

3.4 C

3.3 C

0 W/m

0.00 mm

23:05

3.6 C

1016.7 hpa

72 %

4.8 km/h aus 117

11.3 km/h aus W

-1.0 C

2.3 C

2.6 C

3.3 C

0 W/m

0.00 mm

23:10

3.5 C

1016.7 hpa

72 %

4.8 km/h aus 116

9.7 km/h aus W

-1.1 C

2.2 C

2.4 C

3.2 C

0 W/m

0.00 mm

23:15

3.5 C

1016.7 hpa

76 %

6.4 km/h aus 117

12.9 km/h aus WNW

-0.3 C

1.7 C

1.9 C

3.3 C

0 W/m

0.00 mm

23:20

3.5 C

1016.7 hpa

72 %

4.8 km/h aus 116

9.7 km/h aus WNW

-1.1 C

2.2 C

2.4 C

3.2 C

0 W/m

0.00 mm

23:25

3.3 C

1016.7 hpa

72 %

3.2 km/h aus 117

8.0 km/h aus WNW

-1.2 C

2.8 C

3.1 C

3.1 C

0 W/m

0.00 mm

23:30

3.2 C

1016.7 hpa

73 %

3.2 km/h aus 117

9.7 km/h aus WNW

-1.2 C

2.7 C

2.9 C

2.9 C

0 W/m

0.00 mm

23:35

2.9 C

1016.7 hpa

74 %

3.2 km/h aus 117

6.4 km/h aus WNW

-1.2 C

2.4 C

2.7 C

2.7 C

0 W/m

0.00 mm

23:40

2.8 C

1016.7 hpa

75 %

1.6 km/h aus 116

4.8 km/h aus WNW

-1.2 C

2.6 C

2.8 C

2.6 C

0 W/m

0.00 mm

23:45

2.6 C

1016.8 hpa

76 %

1.6 km/h aus 116

6.4 km/h aus WNW

-1.2 C

2.4 C

2.6 C

2.4 C

0 W/m

0.00 mm

23:50

2.7 C

1016.8 hpa

77 %

3.2 km/h aus 117

6.4 km/h aus WNW

-1.0 C

2.1 C

2.3 C

2.4 C

0 W/m

0.00 mm

23:55

2.6 C

1016.8 hpa

77 %

1.6 km/h aus 117

4.8 km/h aus WNW

-1.1 C

2.3 C

2.6 C

2.3 C

0 W/m

0.00 mm